Regional Weather Roundup
Issued by NWS Burlington, VT

Home | Current Version | Previous Version | Text Only | Print | Product List | Glossary On
Versions: 1 2 3 4 5 6 7 8 9 10 11 12 13 14 15 16 17 18 19 20 21 22 23 24 25 26 27 28 29 30 31 32 33 34 35 36 37 38 39 40 41 42 43 44 45 46 47 48 49 50
000
ASUS41 KBTV 040130
RWRBTV
VERMONT REGIONAL WEATHER ROUNDUP
NATIONAL WEATHER SERVICE BURLINGTON VT
900 PM EDT MON AUG 03 2015

NOTE: "FAIR" INDICATES FEW OR NO CLOUDS BELOW 12,000 FEET WITH NO
SIGNIFICANT WEATHER AND/OR OBSTRUCTIONS TO VISIBILITY.

* THESE REPORTS ARE NOT UNDER NWS QUALITY CONTROL AND/OR DO NOT
  REPORT WEATHER SUCH AS PRECIPITATION AND FOG.

VTZ001>019-040200-
_____VERMONT_____


CITY           SKY/WX    TMP DP  RH WIND       PRES   REMARKS
BURLINGTON     PTCLDY    76  59  55 N6        29.73R
MONTPELIER     PTCLDY    71  61  70 SW7       29.80R
MORRISVILLE    CLOUDY    73  62  68 CALM      29.76R
ST. JOHNSBURY*   N/A     68  62  81 MISG      29.74R
LYNDONVILLE*   MOCLDY    67  60  78 CALM      29.80R
MIDDLEBURY*    FAIR      72  60  67 CALM      29.76R
SPRINGFIELD    MOCLDY    67  65  93 CALM      29.79R
HIGHGATE*      FAIR      69  60  71 CALM      29.74R
NEWPORT*       FAIR      65  62  89 S3        29.77R
BENNINGTON     MOCLDY    66  64  93 N3        29.80R
SUTTON*          N/A     66 N/A N/A MISG        N/A
MT. MANSFIELD*   N/A     59 N/A N/A N14         N/A

_____LAKE CHAMPLAIN_____


CITY           SKY/WX    TMP DP  RH WIND       PRES   REMARKS
COLCHESTER RF*   N/A    N/A N/A N/A NW9         N/A
DIAMOND ISL*     N/A    N/A N/A N/A SW3         N/A

$$

NYZ007-026>031-035-052-083-040200-
_____NORTHERN NEW YORK_____


CITY           SKY/WX    TMP DP  RH WIND       PRES   REMARKS
PLATTSBURGH    PTCLDY    71  60  68 CALM      29.73R
SARANAC LAKE   MOCLDY    61  60  97 CALM      29.78R
MASSENA        CLEAR     66  59  78 S7        29.71R
OGDENSBURG*    CLEAR     68  63  83 SW5       29.73R
POTSDAM*       CLEAR     66  63  88 S3        29.74R
WATERTOWN      CLOUDY    67  62  84 S5        29.75R
FT DRUM        CLEAR     68  61  78 SW8       29.75R
ALBANY         MOCLDY    72  67  84 VRB3      29.76R THUNDER
GLENS FALLS    MOCLDY    71  63  75 CALM      29.75R

$$
NHZ002-005-011-040200-
_____NEW HAMPSHIRE_____


CITY           SKY/WX    TMP DP  RH WIND       PRES   REMARKS
LEBANON        CLOUDY    67  64  90 SE3       29.76S
KEENE          MOCLDY    70  63  78 CALM      29.79R
MT WASHINGTON  MOCLDY    52  46  82 W40         N/A
WHITEFIELD     CLOUDY    63  61  93 CALM      29.78R

$$

_____REGIONAL QUEBEC LOCATIONS_____


CITY           SKY/WX    TMP DP  RH WIND       PRES   REMARKS
MONTREAL       PTCLDY    72  57  60 W16       29.70R
QUEBEC CITY    MOCLDY    70  63  78 S6        29.69R
SHERBROOKE     PTCLDY    66  64  94 E5        29.74R

_____REGIONAL ONTARIO LOCATIONS_____


CITY           SKY/WX    TMP DP  RH WIND       PRES   REMARKS
OTTAWA         PTCLDY    68  63  83 SW6       29.70R

______KEY______
VSB  - VISIBILITY IN MILES
WCI  - WIND CHILL INDEX
HX   - HEAT INDEX
$$
NNNN


USA.gov is the U.S. government's official web portal to all federal, state and local government web resources and services.